Regional Weather Roundup
Issued by NWS San Angelo, TX

Home | Current Version | Previous Version | Text Only | Print | Product List | Glossary On
Versions: 1 2 3 4 5 6 7 8 9 10 11 12 13 14 15 16 17 18 19 20 21 22 23 24 25 26 27 28 29 30 31 32 33 34 35 36 37 38 39 40 41 42 43 44 45 46 47 48 49 50
000
ASUS44 KSJT 261402
RWRSJT
WEST CENTRAL TEXAS REGIONAL WEATHER ROUNDUP
NATIONAL WEATHER SERVICE SAN ANGELO TX
900 AM CDT SAT JUL 26 2014

NOTE: "FAIR" INDICATES FEW OR NO CLOUDS BELOW 12,000 FEET WITH NO
SIGNIFICANT WEATHER AND/OR OBSTRUCTIONS TO VISIBILITY.

TXZ049-054-064>066-071>073-076>078-098-099-113-114-127-128-139-140-
154-155-168>170-261500
...LOCATIONS ACROSS WEST CENTRAL TEXAS...

CITY           SKY/WX    TMP DP  RH WIND       PRES   REMARKS
SAN ANGELO     SUNNY     79  67  66 S14G22    30.04R
ABILENE        SUNNY     82  67  60 S14G20    30.04R
DYESS AFB      SUNNY     82  67  60 S13       30.02R
JUNCTION       SUNNY     78  69  73 CALM      30.06R
SWEETWATER     SUNNY     82  64  53 S17       30.08R
BROWNWOOD      SUNNY     79  68  69 S9        30.05R
COLEMAN        SUNNY     79  67  66 S6        30.06R
SONORA         SUNNY     79  66  65 S8        30.11R
OZONA          FAIR      77  64  65 S10       30.09R
BRADY          SUNNY     79  68  69 S10       30.06R
$$

TEXAS PANHANDLE/OKLAHOMA PANHANDLE

CITY           SKY/WX    TMP DP  RH WIND       PRES   REMARKS
AMARILLO       SUNNY     78  59  51 SW20G30   30.06R
BORGER         SUNNY     82  55  39 SW17G28   30.02R
CANADIAN       SUNNY     83  60  46 CALM      29.98R
DALHART        MOSUNNY   80  51  36 S14       30.07R
DUMAS          SUNNY     80  53  39 SW15      30.06R
GUYMON         NOT AVBL
HEREFORD       SUNNY     79  62  56 SW14G20   30.09S
PAMPA          SUNNY     81  55  40 W15G23    30.04R
PERRYTON       SUNNY     84  53  34 SW22      29.99R
$$

SOUTHERN PANHANDLE/SOUTH PLAINS/ROLLING PLAINS

CITY           SKY/WX    TMP DP  RH WIND       PRES   REMARKS
LUBBOCK        MOSUNNY   80  61  52 SW18G26   30.06S
SNYDER         SUNNY     79  64  59 S8        30.06R
CHILDRESS      SUNNY     80  63  55 S10       30.00R
SEMINOLE       SUNNY     77  61  57 S13       30.09S
$$

PERMIAN BASIN

CITY           SKY/WX    TMP DP  RH WIND       PRES   REMARKS
MIDLAND        SUNNY     79  63  57 S14       30.06R
ODESSA         SUNNY     79  62  56 S10       30.06R
WINK           SUNNY     79  63  57 SE14      30.02R
$$

FAR WEST/SOUTHWEST MOUNTAINS/TRANS PECOS

CITY           SKY/WX    TMP DP  RH WIND       PRES   REMARKS
ALPINE         SUNNY     78  56  47 S7        30.20S
DRYDEN           N/A     81  70  69 E9        30.03R
EL PASO        SUNNY     80  48  32 SE8       30.07R
FORT STOCKTON  SUNNY     78  61  55 SE10      30.05R
GUADALUPE PASS SUNNY     74  57  55 SW14        N/A
MARFA          SUNNY     72  57  60 SE3       30.21R
PECOS          NOT AVBL
$$

DALLAS/FORT WORTH METROPLEX

CITY           SKY/WX    TMP DP  RH WIND       PRES   REMARKS
DFW AIRPORT    MOSUNNY   85  70  60 S14       30.00R
FTW MEACHAM    SUNNY     85  71  63 S10       30.00R
DAL-EXECUTIVE  SUNNY     84  71  65 S6        30.01R
GRAND PRAIRIE  SUNNY     82  70  65 S7        30.03R
ADDISON        SUNNY     81  70  69 S8G16     30.01S
MESQUITE       SUNNY     81  72  74 S10       30.02R
LANCASTER      SUNNY     82  70  68 S6        30.03R
$$

NORTH CENTRAL TEXAS

CITY           SKY/WX    TMP DP  RH WIND       PRES   REMARKS
SHRMAN/DENISON SUNNY     85  70  61 S14       30.01R
GAINESVILLE    SUNNY     81  71  72 S12       30.02R
BRIDGEPORT     SUNNY     83  67  59 SW9       30.02R
DENTON         SUNNY     84  72  67 S10       30.00R
WAXAHACHIE     SUNNY     82  69  64 S9        30.04R
GRANBURY       SUNNY     85  70  60 S9        30.03R
$$

WESTERN NORTH TEXAS

CITY           SKY/WX    TMP DP  RH WIND       PRES   REMARKS
WICHITA FALLS  SUNNY     83  68  60 S13       29.97R
VERNON         SUNNY     84  64  51 SW10      29.98R
BRECKENRIDGE   SUNNY     83  67  56 S12G20    30.02R
COMANCHE       SUNNY     82  67  61 S9        30.04S
$$

CENTRAL AND SOUTH CENTRAL TEXAS

CITY           SKY/WX    TMP DP  RH WIND       PRES   REMARKS
AUSTIN/BERGSTM MOSUNNY   81  74  79 S14       30.04R
WACO           SUNNY     82  73  74 S13       30.03R
HILLSBORO      SUNNY     82  71  71 S9        30.03R
TEMPLE         SUNNY     79  72  78 S13       30.05R
KILLEEN-GRAY   MOSUNNY   81  72  74 S13       30.05R
FORT HOOD      SUNNY     83  73  72 S7        30.05R
GEORGETOWN     SUNNY     81  73  78 S10       30.07R
LAGO VISTA     FAIR      79  72  78 S8        30.07R
SAN MARCOS     SUNNY     81  72  74 MISG      30.07R
NEW BRAUNFELS  SUNNY     81  73  76 S10       30.04R
RANDOLPH AFB   SUNNY     80  72  77 S8        30.06R
SAN ANTONIO    MOSUNNY   80  72  76 S9        30.05R
STINSON        SUNNY     80  73  79 SE7       30.03R
PLEASANTON     NOT AVBL
LA GRANGE      MOSUNNY   82  79  91 S7        30.04R
GIDDINGS       MOSUNNY   80  74  79 SW8G16    30.09R
$$

EAST TEXAS

CITY           SKY/WX    TMP DP  RH WIND       PRES   REMARKS
PARIS          SUNNY     81  70  69 SW10      30.02S
CLARKSVILLE    MOSUNNY   82  75  77 S5        30.03R
TYLER          SUNNY     82  74  76 SW9       30.05R
LONGVIEW       SUNNY     81  73  76 SW6       30.05R
PALESTINE      NOT AVBL
NACOGDOCHES    MOSUNNY   79  75  89 W8        30.07R
$$

TEXAS HILL COUNTRY AND EDWARDS PLATEAU

CITY           SKY/WX    TMP DP  RH WIND       PRES   REMARKS
LLANO          NOT AVBL
HORSESHOE BAY  FAIR      80  69  70 S7        30.06R
KERRVILLE      SUNNY     76  71  84 S9        30.08R
FREDERICKSBRG  SUNNY     78  68  71 S10       30.07R
ROCKSPRINGS    NOT AVBL
HONDO          SUNNY     78  71  79 SE9       30.06R
UVALDE         SUNNY     78  72  81 E8        30.04R
DEL RIO        SUNNY     81  68  64 E15       29.99R
$$

SOUTHEAST TEXAS

CITY           SKY/WX    TMP DP  RH WIND       PRES   REMARKS
COLLEGE STN    PTSUNNY   79  76  90 S9        30.06R
CALDWELL       NOT AVBL
CROCKETT       NOT AVBL
BRENHAM        NOT AVBL
HUNTSVILLE     SUNNY     82  76  81 S8G17     30.06R
CONROE         PTSUNNY   83  77  82 SW7       30.07R
HOUSTON BUSH   PTSUNNY   83  77  82 S6        30.06R
HOUSTON HOBBY  MOSUNNY   84  77  79 S6        30.06R
PERLAND        SUNNY     83  77  82 CALM      30.08R
WHARTON        SUNNY     82  78  85 S5        30.06R
$$

THE UPPER TEXAS COAST

CITY           SKY/WX    TMP DP  RH WIND       PRES   REMARKS
ORANGE         SUNNY     83  79  85 CALM      30.08R
PORT ARTHUR    SUNNY     85  76  74 SW6       30.06R
GALVESTON      MOSUNNY   87  77  72 S10       30.07R
ANGLETON       SUNNY     83  78  85 S7        30.06R
BAY CITY       SUNNY     86  83  92 S6        30.06R
$$

TEXAS COASTAL BEND, RIO GRANDE PLAINS DEEP SOUTH TEXAS

CITY           SKY/WX    TMP DP  RH WIND       PRES   REMARKS
VICTORIA       MOSUNNY   85  77  77 S10       30.05R
BEEVILLE       PTSUNNY   82  76  83 S13       30.03R
ROCKPORT       PTSUNNY   84  77  79 S12G20    30.04R
PORT ARANSAS   SUNNY     83  78  86 S10       30.03R
PORT LAVACA    MOSUNNY   82  77  84 S10       30.05R
CORPUS CHRISTI MOSUNNY   83  77  82 S13       30.03R
KINGSVILLE NAS SUNNY     85  78  80 S15       30.02R
COTULLA        SUNNY     81  71  71 SE10      30.01R
LAREDO         SUNNY     82  73  74 S14       30.02R
BROWNSVILLE    SUNNY     85  78  80 SE14      30.02R
PORT ISABEL    SUNNY     86  76  71 S14       30.01R
HEBBRONVILLE   NOT AVBL
MCALLEN        PTSUNNY   84  77  79 SE16      30.00R
WESLACO        MOSUNNY   84  75  73 S10       30.01R
FALFURRIAS     MOSUNNY   69  69 100 SE8       30.01S
EDINBURG       PTSUNNY   86  76  71 SE14      30.01R
$$



USA.gov is the U.S. government's official web portal to all federal, state and local government web resources and services.